Regional Weather Roundup
Issued by NWS Kansas City/Pleasant Hill, MO

Home | Current Version | Previous Version | Graphics & Text | Print | Product List | Glossary Off
Versions: 1 2 3 4 5 6 7 8 9 10 11 12 13 14 15 16 17 18 19 20 21 22 23 24 25 26 27

000
ASUS43 KEAX 241110
RWREAX

WEATHER ROUNDUP FOR EASTERN KANSAS AND NORTHWEST MISSOURI
NATIONAL WEATHER SERVICE KANSAS CITY/PLEASANT HILL MO
500 AM CST FRI FEB 24 2017

KSZ040-057-103>105-MOZ028-029-037-043-241200-
...KANSAS CITY METROPOLITAN AREA...

CITY           SKY/WX    TMP DP  RH WIND       PRES   REMARKS
K.C. INTL      CLOUDY    38  35  89 NW14G22   29.56R WCI  30
K.C. DOWNTOWN  CLOUDY    40  36  86 W16G22    29.56R WCI  31
LEES SUMMIT    CLOUDY    40  38  93 W13G22    29.55R WCI  32
OLATHE - IXD   CLOUDY    38  35  89 NW18      29.58R WCI  28
OLATHE - OJC   CLOUDY    38  37  97 NW10G20   29.56R WCI  31
LAWRENCE       CLOUDY    39  36  89 W14       29.60R WCI  31

$$

MOZ001>008-011>017-020>025-030>033-038>040-044>046-053-054-241200-
...NORTHERN AND CENTRAL MISSOURI...

CITY           SKY/WX    TMP DP  RH WIND       PRES   REMARKS
ST. JOSEPH     CLOUDY    37  36  96 NW10      29.57R WCI  30
MOSBY          CLOUDY    41  37  87 W15       29.55R WCI  33
WARRENSBURG    CLOUDY    43  39  87 W10G18    29.53R
WHITEMAN AFB   CLOUDY    45  45 100 W13       29.50R
CLINTON        CLOUDY    46  45  93 W14       29.54R
SEDALIA        CLOUDY    49  46  90 W13       29.50R
WARSAW         NOT AVBL
CHILLICOTHE      N/A     45  43  93 NW5       29.49R
KIRKSVILLE     FOG       43  43 100 N10       29.43R VSB 1/4

$$

MOZ041-047>049-056>058-063>065-088>090-097-241200-
...EASTERN AND SOUTHERN MISSOURI...

CITY           SKY/WX    TMP DP  RH WIND       PRES   REMARKS
ST. LOUIS INTL CLEAR     65  53  65 S9        29.45F
SPIRIT OF STL  CLEAR     65  55  70 S10G17    29.42F
COLUMBIA       MOCLDY    50  49  96 NW14      29.45R FOG
JEFFERSON CITY PTCLDY    55  49  80 NW17G26   29.44R
ROLLA          CLEAR     61  54  77 S15       29.43S
OSAGE BEACH    PTCLDY    57  49  74 W12       29.47R
SPRINGFIELD    CLEAR     50  45  83 W12       29.52R
BRANSON        PTCLDY    64  54  68 SW12      29.51R
JOPLIN         CLOUDY    46  42  86 NW13      29.60R
WEST PLAINS    CLEAR     61  53  75 S10       29.52S

$$

IAZ060-094-KSZ022-034>040-054-083-096-NEZ052-066-093-241200-
...KANSAS...SOUTHEAST NEBRASKA AND IOWA...

CITY           SKY/WX    TMP DP  RH WIND       PRES   REMARKS
TOPEKA         CLOUDY    38  35  89 W14G21    29.61R WCI  30
MANHATTAN      CLOUDY    35  31  85 NW8       29.67R WCI  29
EMPORIA        CLOUDY    35  32  88 W20G30    29.65R WCI  24
CHANUTE        CLOUDY    41  35  79 NW21G26   29.63R WCI  32
WICHITA        CLOUDY    36  27  69 NW25G35   29.72R WCI  24
OMAHA          LGT SNOW  32  28  85 N20       29.65R VSB 1   WCI  20
LINCOLN        LGT SNOW  31  29  92 N21G26    29.69R FOG     WCI  18
FALLS CITY     CLOUDY    36  33  89 NW12      29.59R WCI  28
LAMONI         CLOUDY    36  35  96 N13       29.49R FOG     WCI  27
DES MOINES     DRIZZLE   36  32  85 NE22G30   29.50F WCI  25

$$





USA.gov is the U.S. government's official web portal to all federal, state and local government web resources and services.